Regional Weather Roundup
Issued by NWS

Home | Current Version | Previous Version | Graphics & Text | Print | Product List | Glossary On
Versions: 1 2 3 4 5 6 7 8 9 10 11 12 13 14 15 16 17 18 19 20 21 22 23 24 25 26 27 28 29 30 31 32 33 34 35 36 37 38 39 40 41 42 43 44 45 46 47 48 49 50
000
ASUS43 KLMK 010610
RWRKY
KENTUCKY REGIONAL WEATHER ROUNDUP
NATIONAL WEATHER SERVICE LOUISVILLE KY
200 AM EDT WED APR 01 2015

NOTE "FAIR" INDICATES FEW OR NO CLOUDS BELOW 12,000 FEET
WITH NO SIGNIFICANT WEATHER AND/OR OBSTRUCTIONS TO VISIBILITY.

KYZ001>023-026-027-061>063-070>075-010700-
WESTERN AND SOUTH CENTRAL KENTUCKY

CITY           SKY/WX    TMP DP  RH WIND       PRES   REMARKS
PADUCAH        CLEAR     53  37  54 CALM      29.98S
HENDERSON      CLEAR     43  36  75 CALM      30.00S
OWENSBORO      CLEAR     52  37  56 E6        30.00F
HOPKINSVILLE   CLEAR     49  39  66 E3        29.98S
BOWLING GREEN  CLEAR     50  34  54 NE5       30.00S
GLASGOW        CLEAR     49  35  57 NE6       30.00S
$$

KYZ024-025-028>034-038-045-046-053-010700-
NORTH CENTRAL KENTUCKY

CITY           SKY/WX    TMP DP  RH WIND       PRES   REMARKS
LOUISVILLE/SDF CLEAR     51  36  56 N5        30.03R
LOUISVILLE/LOU CLEAR     49  35  58 CALM      30.03R
FORT KNOX      CLEAR     49  36  58 N6        30.00R
$$

KYZ035>037-039>044-047>052-055>060-089>105-010700-
NORTHEAST KENTUCKY

CITY           SKY/WX    TMP DP  RH WIND       PRES   REMARKS
LEXINGTON      CLEAR     44  37  76 E9        30.03S
COVINGTON      CLEAR     42  35  76 E9        30.04R
FRANKFORT      CLEAR     47  35  63 NE8       30.02R
$$

KYZ054-064>069-076>088-106>120-010700-
SOUTHEAST KENTUCKY

CITY           SKY/WX    TMP DP  RH WIND       PRES   REMARKS
JACKSON        CLEAR     46  36  68 NE6       30.02R
LONDON         CLEAR     47  31  53 N6        30.00R
SOMERSET       CLEAR     50  32  50 CALM      30.02R
MIDDLESBORO    CLEAR     54  33  45 NW3       29.98S
MONTICELLO     CLEAR     48  34  58 NE3       30.04R
$$




USA.gov is the U.S. government's official web portal to all federal, state and local government web resources and services.